User: anonymous   Login
Location: Unspecified
(0.0000°N, 0.0000°E)
Time: 18:12:26
(UTC+00:00)
Language:

STARLINK-31012 - Orbit

View from above orbital plane
View from above orbital plane
View from above satellite
View from above satellite

Ground track
Ground track

The orbit is defined by the following mean orbital elements,

1 58531U          26145.21691435 +.00000000 +00000-0 +26201-4 0 00009
2 58531  53.1609  67.1656 0001143  91.3333 268.7799 15.30205457    00
Epoch (UTC): 25 May 2026 05:12:21
Eccentricity: 0.0001143
inclination: 53.1609°
perigee height: 474 km
apogee height: 476 km
right ascension of ascending node: 67.1656°
argument of perigee: 91.3333°
revolutions per day: 15.30205457
mean anomaly at epoch: 268.7799°

The dashed part of the orbit path shows where the satellite is in the earth's shadow,  

DLR